This is the latest recevied weather packets stored in our database for station/object KB7STN. If no packets are shown the sender has not sent any weather packets the latest 1 day(s).
| Time | Temp. | Humidity | Pressure | Rain* | Wind** | Luminosity | Snow |
|---|---|---|---|---|---|---|---|
| 1778025736 | 13.89° C | 52% | 1000.8 hPa | 0 mm | 0.89 m/s, 164° | - | - |
| 1778025436 | 13.89° C | 52% | 1000.9 hPa | 0 mm | 0.45 m/s, 164° | - | - |
| 1778025136 | 13.33° C | 53% | 1000.8 hPa | 0 mm | 0.45 m/s, 161° | - | - |
| 1778024836 | 13.33° C | 53% | 1000.8 hPa | 0 mm | 0.45 m/s, 161° | - | - |
| 1778024536 | 13.33° C | 54% | 1000.9 hPa | 0 mm | 0.45 m/s, 160° | - | - |
| 1778024236 | 13.33° C | 52% | 1000.8 hPa | 0 mm | 0.89 m/s, 180° | - | - |
| 1778023936 | 13.89° C | 52% | 1000.8 hPa | 0 mm | 0.89 m/s, 178° | - | - |
| 1778023636 | 13.33° C | 53% | 1000.8 hPa | 0 mm | 0.45 m/s, 201° | - | - |
| 1778023336 | 13.33° C | 54% | 1000.9 hPa | 0 mm | 0.45 m/s, 193° | - | - |
| 1778023036 | 13.33° C | 54% | 1000.9 hPa | 0 mm | 0.45 m/s, 184° | - | - |
| 1778022736 | 13.33° C | 56% | 1001 hPa | 0 mm | 0.45 m/s, 184° | - | - |
| 1778022436 | 13.33° C | 56% | 1001 hPa | 0 mm | 0.45 m/s, 185° | - | - |
| 1778022136 | 12.78° C | 57% | 1001 hPa | 0 mm | 0.45 m/s, 186° | - | - |
| 1778021836 | 12.78° C | 58% | 1001.1 hPa | 0 mm | 0.45 m/s, 186° | - | - |
| 1778021536 | 12.22° C | 61% | 1001.1 hPa | 0 mm | 0.45 m/s, 185° | - | - |
| 1778021236 | 12.22° C | 62% | 1001.2 hPa | 0 mm | 0.45 m/s, 186° | - | - |
| 1778020936 | 11.67° C | 61% | 1001.2 hPa | 0 mm | 0.45 m/s, 186° | - | - |
| 1778020636 | 11.67° C | 61% | 1001.3 hPa | 0 mm | 0.45 m/s, 186° | - | - |
| 1778020336 | 11.67° C | 62% | 1001.5 hPa | 0 mm | 0 m/s | - | - |
| 1778020036 | 11.67° C | 60% | 1001.6 hPa | 0 mm | 0 m/s | - | - |
| 1778019736 | 11.67° C | 61% | 1001.6 hPa | 0 mm | 0.45 m/s, 186° | - | - |
| 1778019436 | 11.67° C | 60% | 1001.6 hPa | 0 mm | 0.45 m/s, 165° | - | - |
| 1778019136 | 12.22° C | 58% | 1001.6 hPa | 0 mm | 0.45 m/s, 163° | - | - |
| 1778018837 | 12.22° C | 56% | 1001.7 hPa | 0 mm | 0.45 m/s, 163° | - | - |
| 1778018537 | 12.22° C | 53% | 1001.7 hPa | 0 mm | 0.45 m/s, 163° | - | - |
* Rain latest hour (hover to see other rain measurements)
** Current wind speed in m/s (hover to see current wind gust speed)